RH
33 37 45 57 68 77 82 82 81 80 79 78 77 76 76 75 74 73 70 68 66 64 64 62 60 60 58 57 55 53 49 47 45 43 42 39 36 33 30 28 26 24 23 22 21 20 20 19 19 19 18 18 17 17 17 16 17 16 16 17 17 17 17 17 17 18 18 19 20 21 22 23 23 24 24 25 25 27 27 27 27 26 26 25 25 26 25 25
32 32 31 34 38 46 55 62 68 70 72 72 71 71 70 70 68 68 68 65 62 61 60 59 58 58 57 55 54 51 49 48 47 46 44 41 39 37 34 32 30 28 27 25 24 22 22 21 21 20 20 20 19 19 19 18 18 17 17 17 16 16 16 16 16 17 18 18 19 20 21 20 21 21 21 22 23 24 24 24 24 24 23 23 24 24 23 23
30 30 30 31 31 31 32 35 40 45 49 53 57 59 59 60 60 60 61 60 58 57 57 56 55 55 54 52 52 51 50 49 48 47 45 43 42 40 38 36 34 32 30 28 26 25 24 23 22 22 22 21 21 20 19 19 18 18 17 17 16 16 16 16 17 17 18 18 19 19 20 19 19 19 19 20 20 21 22 21 21 21 21 21 22 22 22 21
28 28 28 29 30 31 31 29 28 28 29 30 33 35 37 39 41 42 44 44 44 44 44 44 44 44 43 43 42 41 41 42 42 43 43 43 43 42 40 38 36 34 33 31 29 27 26 25 24 23 22 22 21 20 19 19 18 18 18 17 16 16 16 16 17 17 18 18 18 19 19 19 18 19 19 19 20 20 20 20 19 20 19 20 21 21 21 20
26 27 27 28 28 29 29 29 29 28 27 26 25 25 24 24 24 25 25 26 25 25 25 25 25 25 24 24 24 24 26 28 30 33 36 38 39 39 39 38 36 34 32 30 28 26 24 23 22 21 21 20 19 18 18 18 18 19 18 17 17 16 17 17 17 17 17 17 18 18 18 19 19 19 19 20 20 20 20 20 20 20 19 20 21 20 20 19
27 26 26 27 27 27 27 27 27 27 27 27 26 25 24 24 23 22 22 21 21 20 19 19 18 18 18 17 18 19 20 22 25 27 29 32 33 33 33 32 30 28 27 26 25 24 23 23 22 21 21 20 20 20 20 20 20 20 19 18 18 18 19 18 18 18 18 18 18 18 18 19 19 19 20 20 20 20 20 20 20 20 20 20 20 20 19 18
33 31 30 29 28 27 27 26 26 26 26 25 24 23 23 22 22 22 21 21 20 20 19 19 19 18 19 19 21 22 24 27 29 31 31 32 32 31 31 30 29 29 28 28 28 27 26 26 25 24 23 22 22 22 22 22 22 22 21 20 21 21 21 21 20 20 19 19 19 18 18 18 19 19 19 19 19 19 19 19 19 19 19 19 19 19 18 18
53 48 44 40 38 35 31 29 26 25 24 23 23 22 23 24 24 25 26 27 29 29 30 30 31 31 33 34 37 40 41 41 41 42 42 41 40 39 39 38 36 35 33 32 30 28 26 25 24 23 21 21 20 20 20 21 21 21 21 21 21 20 20 21 20 20 20 20 19 19 18 18 18 18 18 18 18 18 18 18 19 18 19 19 18 18 18 18
81 75 70 64 59 54 48 42 37 34 33 32 33 34 36 39 42 45 49 54 56 58 58 57 57 57 57 55 55 56 56 54 53 53 52 50 48 46 43 39 36 32 29 27 25 24 22 21 20 19 18 18 17 17 17 17 18 18 18 18 18 18 18 18 19 19 19 19 19 19 19 19 18 18 18 18 18 17 18 18 18 18 18 18 18 18 18 18
101 98 94 89 85 79 73 65 60 58 56 56 58 59 61 65 70 74 75 76 76 75 73 71 70 68 66 64 62 62 60 57 56 53 49 45 41 37 33 30 28 26 24 23 22 22 21 20 19 19 18 18 17 17 17 16 16 16 17 17 16 17 16 17 17 17 17 17 18 18 18 18 18 18 18 18 18 18 17 17 17 17 17 18 17 18 17 17
113 111 108 105 102 98 93 87 83 79 78 79 79 80 82 84 85 83 81 78 76 75 73 72 70 68 65 62 58 54 50 46 42 38 35 32 30 28 27 26 26 25 25 25 25 25 24 24 23 23 22 22 21 20 20 19 19 19 19 18 18 17 17 17 17 17 17 17 17 17 17 18 18 18 18 18 18 18 18 17 18 17 17 17 17 17 17 17
116 114 112 109 107 104 100 96 92 90 90 92 92 91 89 86 83 80 79 78 77 75 72 68 63 58 52 47 41 37 35 33 31 30 29 29 29 30 31 31 32 32 32 31 31 31 31 31 29 29 28 27 26 25 25 24 23 23 22 22 21 20 20 19 19 19 19 19 19 19 19 18 18 18 18 18 18 18 18 17 17 17 17 17 17 17 17 17
114 113 111 108 106 103 98 98 98 96 97 99 98 93 86 83 81 80 79 76 71 64 57 50 43 39 35 33 31 31 31 31 32 33 33 35 36 37 39 40 40 39 39 38 38 37 37 38 37 36 34 33 32 30 29 28 27 26 26 25 24 23 23 22 22 22 22 22 22 22 22 21 20 20 19 19 18 18 18 18 18 17 17 17 17 17 17 16
111 109 107 104 105 103 100 102 104 100 98 101 98 90 82 79 77 73 67 58 50 43 37 33 31 32 32 33 34 36 37 38 39 41 43 44 44 45 46 47 48 48 47 47 46 45 44 44 44 43 42 41 39 36 35 34 33 31 30 29 28 27 25 26 26 26 26 27 28 28 26 25 23 21 20 20 19 19 19 19 19 18 17 17 17 17 16 16
108 107 104 102 104 105 104 106 104 98 95 94 88 80 72 66 59 51 44 37 33 31 31 33 35 38 39 40 42 44 46 47 49 51 53 53 52 53 54 56 58 59 59 58 56 55 53 52 50 49 49 48 46 44 43 42 40 38 37 37 37 34 32 35 34 34 36 36 39 39 33 30 28 25 23 23 22 21 20 20 20 19 18 18 18 17 17 17
99 101 101 100 100 98 96 95 91 85 79 73 66 58 51 45 39 34 32 32 33 36 39 42 45 46 47 48 50 52 53 56 60 62 62 61 60 61 62 64 67 68 69 69 68 66 65 63 61 58 56 56 55 53 51 50 49 48 49 49 49 46 43 44 44 44 45 46 49 51 43 37 34 31 29 29 29 28 27 25 24 23 23 22 20 20 20 20
76 78 79 81 81 79 75 72 66 61 55 49 44 39 36 34 33 34 36 39 42 46 49 51 52 52 52 53 55 56 58 64 68 69 69 69 69 69 70 72 74 76 76 77 77 77 76 74 72 69 66 65 63 62 61 61 60 60 59 59 60 59 56 54 52 52 53 53 55 57 51 44 43 42 40 40 39 39 37 34 33 31 30 28 27 27 27 27
54 56 57 58 58 56 53 50 46 43 40 38 38 38 39 41 43 45 47 49 52 56 57 56 55 55 55 56 58 59 60 66 71 73 74 75 75 77 78 80 80 79 79 78 79 79 80 80 78 77 75 72 70 68 69 70 70 69 67 66 66 66 64 62 60 58 58 57 57 60 58 56 57 55 53 52 50 50 47 43 41 39 36 35 35 34 33 33
47 47 47 47 46 45 43 42 41 43 45 47 49 52 54 54 55 56 58 59 60 61 61 59 57 57 59 61 62 62 60 64 71 76 78 79 80 80 80 80 79 76 75 73 73 73 74 76 77 78 79 78 76 74 73 73 74 74 75 75 74 72 69 67 65 62 60 59 59 63 67 68 69 68 66 65 63 64 63 56 47 43 42 40 39 40 39 37
48 48 48 48 47 47 48 51 55 60 63 64 65 67 68 67 66 65 65 65 65 65 64 62 62 62 64 67 69 68 67 67 74 80 81 80 79 78 77 76 75 73 71 69 67 65 65 66 68 70 74 77 78 78 77 78 78 78 79 80 80 78 75 72 69 65 63 60 60 65 72 75 77 79 79 75 72 76 81 79 65 53 50 48 46 44 42 42
57 57 57 58 59 63 68 73 76 78 79 79 79 79 79 77 75 74 73 72 73 71 69 69 70 69 69 73 76 78 77 74 75 79 83 84 82 79 77 75 75 72 70 67 64 62 60 59 59 62 66 70 73 74 75 76 77 78 79 80 81 79 77 77 74 71 69 65 63 67 71 76 82 87 88 79 71 75 86 96 91 75 65 63 60 53 48 50
74 74 75 78 82 87 89 88 86 83 85 89 88 88 88 88 87 85 82 81 83 81 78 79 80 79 77 79 83 85 84 81 78 77 80 83 82 81 79 76 73 70 68 65 62 60 56 54 54 55 58 61 63 64 65 67 69 71 74 75 76 75 75 75 74 74 75 73 71 73 75 76 80 83 84 76 67 71 83 97 104 97 88 83 77 69 63 63
96 96 97 100 102 100 94 86 79 77 83 91 95 95 95 96 96 94 91 89 89 87 86 85 85 83 82 82 85 86 85 84 81 78 76 76 76 76 76 73 71 69 67 64 60 56 51 50 49 49 50 53 56 58 59 59 59 61 65 67 68 69 68 67 69 71 73 76 77 80 83 82 80 78 76 72 69 73 83 93 103 108 105 100 97 92 84 81
113 112 107 109 109 99 86 76 70 69 73 80 87 92 94 97 99 100 98 96 94 93 90 88 87 85 84 83 84 84 84 84 82 79 76 73 72 71 71 71 70 69 66 62 59 54 51 51 50 50 53 54 57 60 60 58 57 58 60 62 61 61 62 62 65 68 70 75 75 78 84 82 81 81 79 80 80 82 88 92 99 106 108 105 105 105 100 98
114 113 106 108 111 97 79 68 65 63 62 64 69 74 78 83 88 93 97 97 96 94 89 85 83 80 78 77 76 77 78 79 79 78 78 76 74 70 68 69 70 69 68 64 60 56 55 57 58 59 62 65 65 65 65 64 62 61 61 61 59 58 60 60 62 66 69 72 71 80 87 78 78 86 85 87 87 84 89 95 99 105 108 106 104 103 102 100
108 108 103 107 109 99 82 69 66 64 61 61 59 61 63 65 69 73 78 81 81 77 72 69 66 64 62 61 61 62 62 63 64 67 70 71 72 71 71 71 70 70 69 67 63 58 57 61 67 68 71 76 75 70 71 72 71 70 67 66 64 64 66 64 63 65 67 68 71 82 87 77 80 89 85 85 85 78 79 92 103 108 108 107 105 105 102 97
105 104 102 107 111 107 91 78 77 78 77 75 69 64 61 58 59 59 60 61 61 60 59 59 59 58 58 58 58 57 56 56 55 55 56 57 59 62 65 69 71 71 70 68 65 62 60 62 69 75 79 83 83 81 80 82 85 81 76 76 76 76 78 76 75 75 74 73 74 80 84 78 79 84 77 75 78 75 74 83 95 102 107 109 108 107 106 101
103 101 101 105 109 112 104 96 96 96 96 95 89 83 75 67 61 58 57 56 56 58 59 60 62 62 62 62 62 62 61 60 58 56 54 52 51 50 52 56 61 66 70 72 71 68 66 65 68 75 81 82 83 86 86 88 91 84 78 81 81 80 82 81 83 84 81 81 81 81 83 79 75 77 72 67 70 74 76 80 81 87 97 103 105 107 108 107
101 101 101 102 105 108 106 104 106 105 104 102 99 98 93 85 73 63 58 57 57 59 61 62 64 65 66 67 67 67 67 66 63 61 58 55 52 50 49 47 49 52 58 65 70 75 77 76 74 75 77 77 76 81 81 83 85 80 77 80 77 77 78 77 79 80 78 81 84 82 81 80 79 84 83 76 76 76 76 81 82 84 92 96 100 104 107 110
102 101 101 102 106 108 106 107 106 104 104 102 100 99 97 93 83 73 65 60 59 60 62 65 66 69 71 72 73 73 73 71 68 65 62 59 56 54 53 51 49 47 48 50 55 62 69 75 77 76 76 75 74 76 77 78 80 77 78 80 76 75 75 74 75 74 74 77 80 78 74 76 82 91 94 87 83 81 77 79 84 88 92 95 99 102 105 109
104 102 99 99 103 103 102 104 103 101 102 102 101 99 96 94 89 84 79 72 69 68 68 70 72 74 77 78 80 80 79 77 74 71 67 64 61 57 55 54 53 51 48 46 45 47 51 57 64 71 77 80 79 80 78 79 79 77 81 82 79 78 75 75 75 73 73 75 74 74 69 70 77 86 93 89 83 84 80 77 84 90 94 97 101 104 106 108
110 107 102 100 100 99 98 98 99 101 103 102 103 102 100 99 97 97 94 88 86 84 82 83 83 84 84 85 85 84 82 80 79 77 73 70 67 63 60 57 56 54 50 47 45 44 44 45 48 54 63 71 77 81 80 81 81 82 86 83 80 80 73 72 77 73 75 75 72 75 71 68 73 77 84 86 81 82 79 74 75 79 84 89 95 102 107 109
111 113 112 109 106 103 99 98 98 100 101 100 100 102 102 103 103 103 98 94 94 91 88 89 90 89 87 86 86 85 83 82 80 79 76 73 70 68 66 62 59 56 53 49 46 45 43 43 43 44 48 54 61 70 75 79 83 87 90 85 84 87 79 75 78 75 79 81 75 78 77 75 79 80 79 81 80 80 79 75 70 66 67 70 77 88 96 101
90 98 105 108 109 108 105 102 101 100 100 99 96 96 97 99 101 101 98 94 92 89 87 87 87 87 86 87 90 89 86 83 81 79 76 73 70 68 66 63 60 58 55 52 49 47 45 43 44 44 44 46 49 55 60 66 74 79 82 84 89 93 86 82 83 80 85 86 76 76 79 81 87 86 80 79 81 83 82 79 75 70 66 65 66 73 79 83
61 69 78 85 92 96 98 101 103 103 104 105 102 99 98 98 99 100 98 94 93 93 92 91 89 90 90 92 94 93 89 86 83 80 76 73 69 65 63 61 60 58 57 55 53 53 50 47 47 47 47 47 47 50 52 56 63 65 67 75 81 83 80 78 79 80 82 79 72 72 75 78 81 80 78 79 81 83 83 81 80 77 75 74 72 73 75 76
42 47 52 58 65 70 75 80 85 91 95 99 102 103 103 104 104 103 100 98 98 98 97 97 96 96 96 96 95 95 92 88 83 80 75 71 67 65 64 64 64 64 63 62 61 62 60 56 54 53 56 58 55 55 55 58 63 63 65 70 71 73 75 72 70 71 73 72 68 67 69 70 70 70 71 73 73 73 75 76 77 78 77 76 76 75 76 76
36 37 39 41 45 49 54 59 63 67 70 73 78 83 86 90 92 93 91 89 90 90 91 93 94 94 95 95 93 92 90 85 81 77 73 70 67 66 68 70 74 76 75 74 74 75 78 75 69 65 67 71 71 68 65 64 67 67 67 69 68 70 73 70 65 65 67 67 65 64 66 66 65 64 64 63 63 64 65 66 67 69 69 69 70 70 71 72
42 40 40 39 38 38 40 43 46 50 52 56 60 63 66 68 70 72 73 72 73 74 76 77 79 82 85 86 87 86 84 82 79 76 73 71 69 69 73 77 82 85 85 84 84 86 92 95 89 83 79 80 83 81 77 73 73 73 71 69 68 68 67 65 62 62 61 60 59 60 61 60 60 60 59 56 56 57 59 60 60 60 61 61 62 63 64 65
55 50 45 42 41 41 43 42 40 39 39 42 47 51 55 58 59 61 64 64 65 66 67 67 67 70 73 76 80 82 81 79 77 75 72 73 72 73 78 83 87 90 91 90 92 94 98 102 101 96 92 89 87 86 85 82 80 80 77 72 70 67 65 62 59 58 58 55 54 54 54 56 57 54 53 51 51 53 54 54 55 56 57 57 58 59 60 61
54 59 58 52 46 44 45 47 48 46 43 41 39 39 42 45 49 53 58 62 64 65 66 66 66 66 69 72 76 80 82 79 77 74 70 70 72 74 82 89 92 94 96 95 95 97 98 102 103 101 100 97 91 87 85 83 79 76 74 70 67 64 62 60 57 55 54 53 51 51 54 59 58 54 53 53 51 51 51 51 51 52 53 54 55 55 56 57
38 47 57 62 60 55 50 48 49 51 54 54 51 48 45 43 43 44 47 52 57 60 62 65 66 67 69 73 75 79 83 82 80 76 71 70 71 71 76 86 92 97 100 99 97 97 97 99 100 99 99 97 90 86 83 79 75 71 68 64 62 60 59 59 60 60 58 55 53 52 54 58 57 54 53 52 50 48 47 47 47 47 48 48 49 49 50 50
37 36 41 49 58 64 64 60 56 53 55 58 59 60 60 59 57 55 53 52 52 54 56 59 62 63 66 70 73 77 81 84 84 82 77 75 74 72 73 80 87 91 95 96 97 99 99 99 99 98 97 93 88 85 81 76 73 70 66 63 61 59 59 57 59 61 59 58 57 53 52 52 50 48 46 44 43 41 40 40 39 39 40 40 41 41 42 43
48 43 39 37 41 50 59 68 72 68 63 59 57 58 63 68 71 73 72 69 64 61 60 60 60 60 62 64 68 71 74 78 82 83 81 78 77 76 75 78 83 86 86 89 94 99 100 100 100 99 96 92 88 84 79 76 74 71 69 69 67 64 62 60 58 57 54 53 53 49 47 45 42 40 39 38 37 36 34 34 33 33 33 33 34 34 35 37
52 53 51 45 39 38 41 52 68 76 76 73 67 61 59 62 68 75 79 81 80 77 75 73 70 69 68 67 67 68 68 69 72 75 78 78 77 78 77 76 80 83 84 86 89 94 96 95 96 96 91 88 87 83 79 76 75 75 75 76 75 71 68 65 61 56 52 48 46 43 40 38 36 34 34 34 34 34 33 31 31 31 31 31 32 33 33 34
52 53 55 56 52 47 42 39 44 53 62 73 77 76 72 68 66 67 69 73 78 82 84 84 83 82 79 77 76 74 73 71 70 71 75 77 76 77 79 79 79 81 85 88 90 92 92 89 90 91 85 83 85 83 79 79 79 79 78 77 75 71 66 62 57 52 48 44 41 38 36 34 32 30 30 30 30 31 30 31 31 31 32 34 35 36 36 37
56 54 53 54 54 56 57 53 47 42 41 46 55 66 76 80 81 78 73 70 70 72 75 78 82 83 83 83 83 81 80 80 76 74 76 80 80 78 79 80 80 81 84 87 89 89 90 89 88 87 82 80 81 80 82 86 84 81 78 74 70 65 60 55 50 46 43 40 38 36 35 35 32 29 30 29 28 29 29 30 31 32 34 37 39 41 43 43
61 61 59 56 53 53 56 60 60 57 52 45 40 42 48 57 68 78 83 84 84 81 77 76 77 78 79 81 82 81 83 85 84 82 82 85 88 88 87 86 86 86 86 86 85 82 83 85 84 84 83 80 79 79 84 89 86 80 75 69 62 56 51 47 44 42 39 37 36 35 35 37 36 34 35 34 32 34 35 36 37 38 37 37 39 41 45 48
66 65 64 63 61 58 57 56 58 59 61 60 57 51 45 41 41 48 56 67 77 85 88 89 91 90 88 88 86 84 84 84 85 87 86 84 86 90 93 92 91 89 85 83 80 76 75 76 77 81 83 82 83 85 88 88 82 74 66 59 53 48 44 42 41 41 40 38 38 38 37 41 45 44 44 44 42 43 44 43 46 50 49 47 46 45 46 48
72 70 69 67 67 67 66 64 61 59 58 60 61 62 62 57 51 45 42 42 45 53 62 72 84 93 98 101 100 96 94 93 90 89 87 82 80 81 81 81 83 82 81 80 77 77 77 73 72 80 85 87 90 90 86 80 72 63 55 49 45 41 40 40 40 41 42 41 42 42 41 45 50 51 53 55 55 53 51 49 51 56 59 60 59 57 54 52
78 76 75 73 71 71 72 72 71 68 65 62 60 60 61 62 62 61 57 52 47 44 42 42 48 57 66 75 84 89 94 98 100 99 98 95 91 88 84 83 84 85 84 84 83 85 87 84 84 91 92 89 87 81 72 65 57 50 45 41 39 41 42 41 40 39 40 41 42 44 46 49 55 60 64 66 63 58 54 51 50 52 55 58 59 58 58 57
86 82 80 78 77 75 74 76 77 77 75 72 69 67 64 61 60 60 60 60 60 59 57 52 46 43 42 42 46 51 58 66 73 79 86 89 90 92 94 94 97 98 98 98 96 96 96 93 90 90 83 75 69 60 53 47 41 37 35 35 37 39 39 39 38 40 42 44 46 49 53 57 61 66 70 69 64 61 57 53 52 52 53 54 54 55 56 56
91 88 85 83 82 79 76 76 77 77 79 79 78 77 75 71 67 64 60 58 57 59 61 63 62 59 56 52 48 44 41 40 41 44 48 53 56 62 67 71 77 81 83 84 83 80 77 72 67 62 56 51 46 42 39 36 32 31 32 35 38 39 39 40 43 45 48 53 58 62 67 69 67 68 70 67 63 62 60 57 55 53 51 50 49 49 51 52
Wind_Speed
75 76 77 78 79 79 79 79 79 78 78 78 78 78 79 79 79 79 79 79 79 79 79 79 79 79 79 79 79 79 79 79 79 79 79 79 80 79 79 79 79 79 80 81 81 82 83 84 84 85 86 87 88 89 90 90 91 92 93 93 94 95 96 97 97 97 97 97 96 96 96 96 96 96 96 97 97 98 100 101 102 102 101 101 101 101 102 102
74 75 75 76 77 78 79 79 79 79 79 79 79 79 79 79 79 79 79 79 79 79 79 79 79 79 79 79 80 80 80 79 79 78 78 78 78 77 77 77 77 77 78 78 79 80 80 81 82 83 83 84 85 85 86 87 88 89 89 90 91 92 93 93 92 92 92 91 91 91 93 94 94 93 94 94 95 97 98 100 102 102 102 101 101 101 102 102
74 74 75 75 76 76 77 77 77 78 78 78 79 79 79 79 79 79 79 79 79 79 79 79 79 79 80 80 80 80 80 79 79 78 77 77 76 76 76 76 76 77 77 77 78 79 79 80 80 81 81 82 83 83 83 84 85 86 87 88 89 90 90 89 88 88 88 88 88 89 90 91 91 91 90 91 92 94 96 99 100 100 100 99 99 100 100 99
72 73 73 74 75 75 75 75 76 76 76 76 77 77 77 77 77 78 78 78 78 78 79 79 79 79 79 79 79 79 79 78 78 77 77 76 76 76 76 76 76 76 76 77 77 77 78 78 79 79 80 80 81 82 82 82 83 84 85 86 87 87 87 86 86 86 86 86 86 87 88 89 89 89 88 88 89 90 92 95 96 96 96 95 95 95 95 94
69 70 71 72 73 73 74 74 74 74 74 75 75 75 75 75 75 75 75 75 75 76 76 76 76 76 76 76 75 75 75 75 75 75 75 75 75 76 76 76 76 76 76 76 76 76 76 76 76 77 78 78 79 80 79 80 81 81 83 84 84 84 84 84 84 84 84 84 85 85 85 85 86 86 85 85 86 87 88 90 91 91 91 90 90 92 92 91
65 67 68 69 70 71 71 72 72 72 72 72 72 72 72 72 72 72 72 72 72 72 72 72 72 72 72 71 71 71 71 71 71 71 72 72 73 73 73 73 74 73 73 73 72 72 72 73 73 74 74 75 76 76 76 77 78 79 80 81 80 81 80 81 81 81 82 82 82 82 82 83 83 84 83 83 84 84 85 86 87 87 87 87 88 90 91 90
61 62 63 65 66 67 68 68 69 69 69 69 69 69 68 68 68 68 68 68 67 67 67 67 67 67 67 67 66 66 66 66 67 67 67 68 68 68 69 69 69 69 69 69 69 69 70 71 71 72 72 72 73 73 74 75 76 77 77 77 77 78 78 78 79 79 80 80 80 81 81 81 81 82 82 82 82 83 83 84 85 85 85 86 87 89 90 89
56 57 58 59 60 62 62 63 64 64 64 64 64 63 63 62 62 61 61 60 60 60 60 60 60 60 60 60 60 60 61 61 62 62 63 63 64 64 65 65 65 66 66 67 67 68 69 70 71 71 71 71 71 72 73 74 75 75 75 76 76 77 77 78 79 79 79 79 80 80 80 80 81 81 82 82 82 82 83 83 84 84 84 86 87 87 88 89
53 53 54 55 56 56 57 58 58 58 58 58 57 57 56 55 55 54 54 53 53 53 53 53 53 54 54 55 56 57 57 58 59 60 60 61 62 62 63 64 64 65 65 66 67 67 68 68 69 69 69 69 69 70 72 72 72 73 74 75 76 76 77 78 79 78 78 79 80 80 80 80 81 81 82 82 82 82 83 83 84 84 84 85 87 87 88 89
51 51 51 52 52 53 53 53 53 53 52 52 51 51 50 50 50 50 49 49 50 50 51 51 51 52 53 54 55 56 57 57 58 59 60 60 61 61 62 62 62 63 63 63 64 64 64 64 64 64 63 64 64 65 67 67 67 68 69 70 72 73 73 75 76 76 76 77 78 78 78 79 80 80 81 82 82 82 82 83 83 84 84 85 86 87 88 88
49 49 50 50 50 51 50 50 49 49 49 48 48 48 48 48 48 48 49 49 50 50 51 51 52 53 53 54 55 56 56 56 57 58 58 58 58 58 58 58 58 58 58 58 58 57 57 57 57 56 56 56 57 58 59 59 59 60 61 63 65 66 67 68 69 70 71 72 73 74 75 76 77 78 78 79 80 80 81 81 82 83 83 84 85 86 87 87
48 48 49 49 49 49 49 48 48 47 47 47 47 48 48 48 48 49 49 50 50 51 52 52 53 53 53 53 54 54 54 54 54 54 54 54 53 53 53 53 53 53 53 52 51 51 50 50 49 49 49 49 49 50 51 52 52 53 54 56 57 58 59 60 60 61 63 64 65 67 68 70 71 72 73 74 75 76 77 78 79 80 81 82 83 84 85 86
47 47 48 48 48 48 48 47 47 47 47 47 47 48 48 48 48 49 50 50 51 52 52 52 52 52 52 51 51 51 51 50 50 50 50 49 49 48 48 48 48 48 48 47 47 46 45 44 43 43 43 43 43 44 45 45 46 47 48 49 50 51 51 52 52 53 54 55 56 58 60 62 63 64 66 67 68 69 70 71 73 74 75 77 78 79 80 81
47 47 47 47 47 47 47 47 47 47 47 47 48 48 48 49 49 50 50 51 51 51 51 50 50 49 49 48 48 47 47 47 46 46 46 45 45 44 44 44 44 44 44 43 43 42 41 40 40 39 39 39 39 40 40 40 41 42 43 43 44 45 45 45 46 46 47 47 48 51 52 54 55 57 57 59 60 61 62 63 65 67 68 70 71 72 73 74
47 47 47 47 47 47 47 47 47 47 47 48 48 49 49 49 49 50 50 50 49 49 48 47 47 46 45 45 44 44 43 43 43 43 43 42 42 41 41 41 42 42 41 41 41 40 39 39 39 38 37 37 37 36 36 36 37 38 39 39 40 41 40 40 41 41 41 41 42 45 47 48 49 50 50 51 53 54 56 57 58 60 62 63 65 66 67 68
48 47 47 47 47 47 47 47 47 48 48 48 49 49 49 49 48 48 48 47 47 46 45 44 44 43 43 42 42 41 41 41 42 41 41 40 40 40 40 40 41 41 40 40 40 40 39 39 38 38 37 36 36 35 35 35 35 35 36 36 37 38 37 37 38 38 38 38 39 41 43 44 44 45 45 46 47 48 50 51 53 54 56 57 58 59 60 61
48 48 48 48 48 48 48 48 48 48 48 48 48 48 47 47 46 46 45 44 44 43 43 42 42 42 41 42 41 40 41 41 41 41 41 40 40 40 40 40 41 41 41 40 40 40 40 40 39 38 37 37 36 35 35 35 35 35 35 35 36 36 36 36 37 37 37 37 37 39 41 41 41 41 41 42 42 44 45 46 48 49 50 51 52 53 54 55
49 49 49 49 49 48 48 48 47 46 46 46 45 45 45 44 43 43 43 42 42 41 41 41 41 41 41 42 41 41 41 41 42 42 41 41 41 41 41 41 41 41 41 41 41 41 41 41 40 39 39 38 38 37 37 37 37 36 36 36 36 37 37 37 37 37 37 37 37 38 39 39 39 39 39 39 39 40 42 44 45 46 46 47 47 49 50 50
48 48 48 48 47 47 46 45 44 43 43 43 42 42 42 42 41 41 41 41 40 40 40 41 41 40 41 42 42 42 41 42 42 42 42 42 42 42 42 42 42 42 42 42 42 42 42 42 41 40 40 40 40 39 39 39 39 38 38 38 38 39 39 38 38 38 38 37 37 37 38 39 39 39 39 38 38 38 40 42 43 43 43 43 44 45 46 46
46 46 46 45 45 44 43 42 41 40 40 40 40 40 40 40 40 40 40 40 40 40 40 40 40 40 41 41 42 42 42 42 42 43 43 43 43 43 43 43 43 43 43 43 43 43 42 42 41 41 41 42 42 42 42 42 41 41 41 41 41 41 41 40 39 39 39 39 38 38 39 40 40 40 40 39 38 37 38 40 41 41 41 41 41 42 42 41
43 43 43 42 42 41 40 39 39 38 39 39 38 38 38 38 38 39 39 39 39 40 40 40 40 40 41 41 41 42 42 43 43 43 43 43 43 43 43 43 43 43 43 44 44 44 43 42 41 42 42 44 45 45 44 44 44 43 43 43 44 44 42 42 41 40 40 40 40 40 41 41 41 41 41 41 40 39 39 39 40 40 40 39 39 39 38 37
40 40 40 40 39 39 38 38 38 38 38 38 37 37 37 37 37 38 38 38 39 39 39 39 39 40 40 40 41 41 42 42 42 42 43 43 43 43 43 43 42 42 43 44 44 44 44 42 42 43 43 44 46 46 45 45 45 45 45 45 45 45 44 43 42 42 42 42 42 42 43 42 43 43 43 43 41 40 41 41 41 40 40 39 39 38 37 36
38 39 39 39 38 38 38 39 38 38 37 37 37 37 37 37 37 37 37 38 38 38 38 38 38 39 38 38 39 40 41 41 42 42 42 43 42 42 42 42 42 42 43 44 44 44 43 42 42 42 43 44 45 46 46 46 46 45 45 46 46 46 45 44 43 43 43 43 43 43 44 44 45 45 44 44 42 41 42 42 41 41 40 40 40 39 39 37
39 39 39 39 38 38 39 39 38 38 38 37 37 37 37 37 37 37 37 38 38 37 37 37 37 37 37 37 38 39 39 40 40 41 41 41 41 41 41 41 41 42 42 43 43 43 41 41 41 41 41 42 43 44 45 45 45 45 45 46 47 46 46 45 44 44 44 44 44 44 45 46 45 45 45 45 43 43 43 43 42 42 41 41 41 42 41 40
40 40 40 39 39 39 39 39 38 38 38 37 37 37 37 37 37 37 38 38 38 37 37 36 36 36 35 35 36 37 37 38 39 39 39 40 40 40 39 39 40 41 41 42 42 41 40 39 39 39 39 40 41 42 43 43 43 44 44 45 45 45 45 45 44 44 45 45 45 44 47 47 45 46 46 46 46 45 44 44 44 44 43 43 44 44 44 43
41 40 40 40 40 39 39 39 39 38 38 38 38 38 38 38 38 38 38 39 39 38 37 36 36 36 35 35 36 36 37 38 38 38 39 39 39 39 39 39 40 40 41 41 41 41 39 39 39 39 38 39 40 40 40 41 41 42 42 42 42 42 42 43 43 43 45 45 45 45 48 48 46 47 48 47 48 47 46 46 46 46 46 45 46 46 46 46
41 41 41 41 41 40 40 40 39 39 39 39 40 40 40 40 39 40 40 40 40 39 39 38 38 37 37 37 37 37 38 38 39 39 40 40 40 40 40 40 41 41 41 42 42 41 40 39 39 39 39 39 39 39 39 39 39 40 40 39 39 39 39 40 40 41 42 43 44 45 47 48 47 48 49 48 49 49 47 47 48 48 48 48 48 48 48 48
42 42 42 43 43 42 42 41 41 41 41 42 42 42 42 41 41 41 42 42 41 41 41 40 39 39 39 40 40 39 40 40 41 41 41 41 41 41 41 41 42 42 43 43 43 42 41 41 41 41 41 41 40 40 40 39 40 40 39 38 38 38 38 38 38 39 39 40 41 42 44 46 46 48 49 49 48 49 48 49 49 49 49 49 49 49 49 50
43 43 43 44 44 44 44 44 44 44 44 44 44 44 44 43 43 43 43 43 43 43 43 42 42 42 42 42 42 42 42 42 43 43 42 42 42 42 42 42 42 43 44 45 44 44 43 43 42 42 43 43 42 42 42 41 42 41 39 39 39 39 39 38 38 39 38 38 39 40 41 41 41 43 46 46 46 46 47 48 49 49 50 50 49 49 49 49
44 44 45 45 45 46 46 46 46 46 46 46 46 46 46 45 45 45 45 45 45 45 45 45 45 45 45 45 45 45 45 45 45 45 44 44 44 44 43 43 43 44 45 46 46 46 46 46 45 45 44 45 44 44 44 44 44 43 41 42 42 41 41 40 40 40 40 39 40 40 40 39 39 41 44 45 44 44 45 46 47 48 49 49 49 49 49 49
46 46 46 46 47 47 48 48 48 48 48 48 48 47 47 47 47 47 47 47 47 47 47 47 47 47 48 48 47 47 47 47 47 47 47 46 46 46 46 45 46 46 47 47 48 48 48 48 48 47 46 46 46 46 46 46 46 45 44 45 45 44 44 43 43 43 42 42 42 42 42 40 41 42 44 46 45 44 44 44 44 45 46 47 47 48 48 49
49 49 49 49 49 49 49 49 49 49 49 49 49 49 49 49 49 49 50 49 49 50 49 49 49 50 50 50 50 50 50 49 49 49 49 49 49 48 48 48 48 49 49 49 49 49 49 49 49 49 49 49 48 48 48 47 47 47 48 48 47 48 48 46 46 46 45 46 45 45 45 43 44 45 46 48 49 48 47 46 46 45 45 46 45 46 47 47
51 51 51 51 51 52 51 51 51 51 51 51 51 51 51 51 51 52 52 51 51 52 51 51 51 51 52 52 51 51 51 51 51 51 51 51 50 50 50 50 51 51 51 52 52 51 51 50 50 50 50 51 50 50 50 49 49 49 50 50 49 50 50 48 49 49 48 50 49 48 48 46 47 49 49 51 52 53 52 51 50 49 48 48 47 47 47 47
53 53 53 53 54 54 54 53 53 53 53 53 53 53 53 53 53 54 54 53 53 53 53 53 53 53 53 53 53 53 53 53 53 53 53 52 52 52 52 52 53 53 53 54 53 53 53 52 52 51 51 51 51 51 51 50 50 51 51 51 50 52 52 50 51 50 50 52 51 49 49 49 50 52 53 53 54 55 56 56 54 53 52 51 50 50 50 50
53 54 54 55 55 55 55 55 55 55 55 55 55 55 55 55 55 56 56 55 55 55 55 55 54 54 54 54 54 54 54 54 54 54 54 54 54 54 54 54 54 54 54 54 54 54 54 53 52 52 52 52 52 51 52 51 51 52 51 51 52 52 53 51 51 51 51 53 52 50 50 51 52 54 54 54 55 56 57 58 57 56 55 54 54 53 54 54
53 54 55 55 56 56 56 56 56 56 57 57 57 57 57 57 57 58 58 57 57 56 56 56 56 55 55 55 55 55 56 55 55 55 55 54 54 54 53 53 53 53 53 52 52 52 53 53 52 52 52 52 52 51 51 51 51 52 51 52 52 52 53 53 52 51 52 53 52 51 51 53 54 55 55 56 57 57 57 58 58 58 57 57 56 56 56 56
50 52 54 55 56 56 56 57 57 57 57 57 57 58 58 58 59 59 59 58 58 58 58 57 57 57 57 57 57 56 57 57 56 56 55 54 53 52 51 51 50 50 50 50 50 50 51 52 51 51 51 51 51 51 51 51 51 52 52 52 52 52 53 54 53 53 53 53 53 52 53 54 55 56 57 58 58 57 58 59 59 59 59 59 58 58 58 58
43 46 50 52 54 55 56 57 57 57 57 57 57 57 57 58 58 58 58 58 58 58 58 57 57 57 57 57 57 57 57 57 56 55 54 53 51 50 49 49 48 48 48 48 48 48 49 50 50 51 50 50 51 51 51 51 51 52 52 52 52 53 54 55 54 53 54 54 54 53 54 55 57 59 60 59 58 58 58 59 60 60 60 60 60 60 60 59
36 39 42 45 48 50 53 55 56 57 57 57 57 57 57 57 57 57 57 57 57 57 57 56 56 56 56 56 56 56 56 55 55 54 52 51 50 49 49 49 48 48 48 48 48 47 48 49 50 50 50 50 51 50 50 51 50 51 52 52 53 53 54 55 55 54 55 55 54 54 54 55 58 60 60 59 58 58 58 59 59 60 60 60 60 60 60 60
33 34 36 38 40 43 47 49 52 53 54 56 57 57 57 57 57 57 57 57 57 57 57 56 56 55 55 55 55 55 55 55 54 54 52 51 51 50 49 49 49 48 48 48 48 48 48 49 50 50 50 51 51 51 50 51 51 52 52 53 53 54 54 55 55 55 55 55 55 53 52 54 58 58 57 58 57 57 57 57 57 58 58 58 58 59 59 60
32 33 34 34 35 36 39 42 45 47 49 51 53 53 54 55 56 56 57 57 57 57 57 57 57 56 55 56 56 55 55 55 55 54 53 52 52 51 50 50 50 49 50 49 49 49 49 49 50 50 51 52 52 51 52 52 53 53 54 54 54 54 55 55 54 55 55 55 54 53 50 52 56 55 54 56 56 56 55 55 55 55 55 55 56 56 57 58
32 32 33 33 33 34 34 35 38 41 43 46 48 49 50 51 52 53 54 55 56 56 57 57 57 57 56 56 56 56 56 56 56 55 55 54 54 53 52 51 51 51 51 50 50 50 50 50 50 51 52 53 53 53 54 54 54 55 55 55 55 55 55 55 54 54 54 51 51 52 49 50 53 53 53 54 55 55 54 53 53 53 53 54 54 54 55 56
34 33 33 33 33 34 34 34 35 36 38 40 42 44 45 47 48 49 50 52 52 53 54 55 55 56 56 57 57 57 57 57 57 56 56 55 55 54 53 53 53 53 52 52 51 51 52 52 52 53 53 54 54 54 55 55 55 55 54 54 55 54 54 54 53 54 53 49 50 51 48 48 52 52 52 52 53 53 53 53 53 53 53 53 53 54 54 55
36 35 35 35 33 33 34 34 35 36 36 37 37 38 40 42 43 45 47 48 48 49 50 51 51 53 53 54 55 56 57 57 57 57 57 56 56 56 55 54 54 54 54 53 53 53 53 53 53 54 55 54 55 55 55 55 55 55 54 54 54 54 53 53 53 54 52 50 51 51 48 49 51 50 50 51 52 53 54 53 53 53 53 53 53 54 54 54
38 37 37 37 35 34 34 34 35 36 36 37 37 37 37 38 39 41 42 43 44 45 46 47 48 49 50 51 52 53 54 55 55 55 55 56 56 56 56 56 55 55 55 55 54 54 55 55 55 56 56 55 56 56 55 55 55 55 54 54 54 54 54 53 53 53 52 51 51 51 50 51 52 51 51 52 52 53 54 54 54 53 53 53 53 54 54 55
40 40 39 39 38 36 36 36 36 36 36 37 37 37 37 37 38 39 39 40 41 42 43 44 46 47 48 49 50 51 51 52 53 52 53 54 55 55 55 56 56 56 56 56 56 56 56 56 56 57 57 56 57 56 55 55 55 55 55 55 55 55 55 54 53 53 53 52 52 52 52 53 54 54 55 55 54 54 54 54 54 54 53 54 54 54 55 56
42 41 41 41 40 39 38 38 38 38 38 38 37 37 38 38 38 39 39 39 40 40 41 42 43 45 46 47 48 49 49 50 51 51 51 52 53 53 54 55 55 55 56 56 57 57 56 56 56 57 57 57 57 56 54 55 56 56 56 55 55 55 55 55 53 54 54 53 53 54 53 54 57 57 57 57 56 54 55 55 55 55 55 55 55 55 56 57
44 43 43 43 42 42 41 41 41 40 40 40 39 39 39 39 38 38 39 40 40 41 41 41 42 43 44 45 46 47 47 48 49 50 50 50 51 52 53 54 54 55 55 56 56 56 56 56 56 56 56 56 56 55 54 55 56 56 56 56 56 56 55 54 54 55 56 55 54 55 53 53 58 59 58 59 58 56 57 56 55 56 57 57 58 58 58 58
46 45 45 45 44 44 43 43 43 43 43 42 42 42 42 41 40 39 39 40 40 41 42 42 43 44 44 45 46 46 46 47 48 49 49 50 50 51 52 52 53 54 54 55 55 55 56 55 54 54 55 54 55 55 54 55 56 56 56 56 56 56 55 55 55 56 57 55 55 57 55 53 58 61 60 62 62 60 59 58 57 59 60 61 62 62 62 62
48 48 47 47 46 46 45 45 46 46 45 45 44 44 44 44 43 43 42 42 41 42 42 43 43 44 45 45 46 46 46 47 48 48 49 49 50 50 50 50 51 52 53 53 53 53 55 54 53 54 55 54 55 56 55 56 56 54 54 54 55 56 57 57 56 57 58 57 57 59 57 56 59 62 63 65 65 64 63 61 61 61 62 63 64 64 65 65
49 49 49 49 49 48 48 47 48 47 47 47 47 47 47 46 46 46 45 45 44 44 44 44 44 44 45 45 45 46 46 47 48 48 49 50 50 50 51 51 52 52 53 53 53 54 55 54 54 56 55 54 56 56 56 56 54 51 51 52 55 58 58 58 58 59 60 60 61 61 59 59 62 64 66 67 67 67 66 65 64 64 64 65 66 66 66 67
49 50 50 50 50 51 51 50 50 50 49 50 49 49 49 49 49 49 48 48 47 47 47 47 47 47 46 46 46 47 47 47 47 48 49 49 50 51 51 52 53 53 54 54 55 55 56 56 56 57 55 55 55 55 56 56 53 50 50 54 58 60 59 60 61 62 63 64 64 64 63 64 65 67 69 70 69 70 70 69 69 68 68 68 67 66 67 67
Wind_Direction
248 248 248 249 249 249 249 249 250 250 251 251 251 252 252 253 253 254 255 255 256 256 257 257 258 259 259 260 260 261 261 262 262 262 263 263 262 262 262 261 261 260 260 260 259 259 259 259 259 259 259 260 260 260 260 261 261 261 261 262 262 262 262 263 263 264 264 264 264 264 264 264 263 263 264 264 265 266 266 267 267 267 268 268 269 269 269 270
249 249 250 250 250 251 251 251 252 252 252 253 253 253 254 254 255 255 256 257 257 258 258 259 259 260 260 261 261 262 262 263 263 263 263 263 263 263 262 262 262 261 261 260 260 260 260 260 260 260 260 260 260 260 261 261 261 261 261 261 261 261 262 262 262 263 263 263 263 263 262 262 262 262 262 263 263 264 265 266 266 267 267 268 268 269 269 270
250 250 251 251 252 252 253 253 253 254 254 254 255 255 256 256 257 257 258 258 259 259 260 260 261 261 261 262 263 263 263 264 264 264 263 263 263 263 262 262 262 262 261 261 261 261 261 261 261 261 261 261 261 261 261 261 261 261 261 261 261 261 261 261 261 262 262 262 262 261 262 262 262 262 262 262 262 263 264 265 265 266 267 268 268 269 270 270
250 251 251 252 253 253 254 254 255 255 255 256 256 257 257 258 258 259 259 260 260 261 261 261 262 262 262 263 263 263 264 264 264 263 263 263 263 263 263 263 262 262 262 262 262 262 262 262 262 262 262 261 261 261 261 261 260 260 260 260 260 261 261 261 261 261 261 261 261 261 261 262 262 262 261 261 261 262 263 264 265 266 267 268 269 269 269 270
251 251 252 253 253 254 254 255 256 256 257 257 258 258 259 259 260 260 261 261 261 262 262 262 262 263 263 263 263 263 263 263 263 263 263 263 263 263 263 263 263 263 264 264 264 263 263 263 262 262 261 261 261 260 260 260 260 260 260 260 260 261 261 261 261 261 261 261 261 261 261 261 262 262 261 261 261 261 262 263 265 266 267 268 268 268 268 268
252 252 253 253 254 254 255 256 256 257 257 258 259 259 260 260 261 261 261 262 262 262 262 262 262 262 262 263 263 263 263 263 263 263 263 263 263 264 264 264 264 265 265 265 265 264 264 263 263 262 261 261 261 261 260 260 260 260 260 260 261 261 261 261 261 261 261 261 261 261 261 261 261 261 261 261 261 261 261 262 263 264 265 266 266 267 267 268
252 252 253 253 254 255 255 256 256 257 258 258 259 260 260 260 261 261 261 262 262 262 262 262 262 262 262 262 262 262 262 263 263 263 263 264 264 264 265 265 265 266 266 266 266 265 265 264 264 263 263 262 262 262 261 261 260 260 260 260 260 261 261 261 260 260 260 260 260 260 260 260 261 261 261 261 261 261 261 261 262 263 263 264 265 266 267 268
252 252 253 253 254 255 255 256 256 257 258 259 259 260 260 260 260 261 261 261 261 261 261 261 261 261 261 261 261 261 261 262 263 263 264 264 265 265 266 266 266 267 267 267 267 267 266 266 266 265 265 264 264 263 262 261 261 260 260 260 260 260 260 259 259 259 259 259 260 260 260 260 260 261 261 261 261 261 261 261 262 262 262 263 264 265 266 266
252 253 253 254 255 255 256 256 257 257 258 258 259 259 259 259 259 259 259 259 260 260 260 260 260 260 260 260 260 261 261 262 263 264 264 265 266 266 267 267 267 268 268 268 268 268 268 267 267 267 266 265 264 263 262 261 261 260 260 259 259 259 259 259 259 259 259 259 260 260 260 260 260 260 260 261 261 261 261 261 261 262 262 262 263 264 264 265
253 253 254 254 255 255 256 256 257 257 258 258 258 258 258 258 258 258 258 258 258 259 259 259 259 260 260 260 261 262 262 263 264 264 265 266 266 267 267 268 268 268 268 268 268 268 268 267 267 266 266 265 264 263 262 262 261 260 259 259 258 258 258 258 259 259 259 259 259 260 260 260 260 260 260 260 260 260 261 261 261 262 262 262 262 263 264 264
252 253 253 254 254 255 255 256 256 257 257 257 257 257 257 257 257 257 258 258 258 259 259 260 260 261 261 262 262 263 263 264 264 265 265 266 266 267 268 268 268 268 267 267 267 267 267 267 266 266 265 264 264 263 262 261 260 259 259 258 258 258 258 258 259 259 259 260 260 260 260 259 259 259 259 260 260 260 260 260 261 261 261 262 262 263 263 264
252 252 253 253 254 254 255 256 256 256 256 256 256 256 257 257 257 258 258 259 259 260 261 261 262 262 262 262 263 263 263 263 264 265 265 265 266 266 267 267 266 266 266 266 266 266 266 266 265 265 264 264 263 262 261 260 259 259 258 258 258 258 258 259 259 259 259 260 260 260 259 259 259 259 259 259 260 260 260 261 261 261 262 262 262 263 263 264
251 252 252 253 253 254 255 255 255 256 256 256 256 257 257 258 258 259 260 260 261 261 262 262 262 262 262 262 262 262 262 263 263 264 264 264 265 265 264 264 264 265 265 265 265 265 265 265 264 264 264 263 262 261 261 261 260 260 259 259 259 259 258 259 259 259 259 259 260 260 259 259 259 259 259 260 260 261 261 261 261 261 262 262 262 263 264 264
251 251 252 253 253 254 255 255 256 256 256 257 258 258 259 259 260 261 261 261 262 262 262 262 262 261 261 261 260 261 261 261 262 262 263 263 263 262 262 262 263 263 264 265 265 265 265 264 264 263 263 263 262 262 262 262 262 261 260 260 260 259 258 258 258 258 258 258 259 259 259 259 259 259 260 260 260 260 261 260 261 261 261 261 262 262 263 264
251 251 252 253 254 254 255 256 256 257 258 258 259 260 260 261 261 261 261 261 261 261 260 260 260 259 258 258 258 259 259 260 261 261 261 261 260 260 259 260 261 263 264 265 266 266 266 265 264 264 263 263 263 263 263 263 263 262 262 261 260 259 258 257 257 257 257 257 258 259 259 259 260 260 260 261 261 260 260 260 260 260 261 261 261 262 263 263
250 251 252 253 254 255 256 256 257 258 259 260 260 261 261 261 261 260 260 259 259 258 258 257 256 256 256 255 256 257 258 258 258 259 259 259 258 258 259 260 261 263 264 265 266 266 266 266 266 265 265 265 265 264 264 264 263 262 262 261 260 260 258 257 256 256 256 256 257 259 260 261 261 262 261 261 261 261 260 260 260 260 260 261 261 262 263 264
251 251 252 253 254 255 256 257 258 259 260 260 260 261 260 260 259 259 258 257 256 256 255 254 254 254 254 254 254 254 256 256 257 257 257 257 258 258 260 261 262 263 263 264 264 265 265 265 265 266 266 266 265 265 264 264 263 262 261 261 260 260 259 258 257 256 256 255 256 258 261 262 263 263 262 262 262 261 261 261 260 261 261 261 262 263 264 264
251 251 252 253 254 255 256 257 258 258 259 259 259 259 259 258 257 256 255 254 253 253 252 252 252 252 253 254 253 253 254 256 256 256 256 257 258 259 260 261 261 262 262 262 262 262 263 264 264 265 265 265 265 264 263 263 262 262 262 261 260 260 259 258 257 257 256 256 257 258 261 262 263 263 262 262 261 262 262 262 261 262 262 263 263 264 264 264
250 251 252 253 254 255 255 256 257 257 257 257 257 257 256 256 255 254 253 252 252 251 251 250 251 251 252 253 253 253 254 255 256 257 257 257 258 258 259 260 261 262 262 262 262 262 262 262 262 263 263 263 263 263 262 261 261 261 260 260 259 259 258 258 258 258 258 258 258 258 259 260 261 261 261 261 261 262 263 264 263 263 263 263 263 264 264 265
250 250 251 252 253 254 254 254 254 255 255 255 254 254 254 254 253 252 251 251 251 250 250 250 250 250 251 253 254 254 255 255 256 257 257 258 258 259 259 261 262 263 263 263 263 263 262 262 262 262 262 261 261 260 260 260 259 259 259 259 259 258 259 259 259 259 260 259 259 258 258 258 259 260 260 260 260 261 263 265 265 265 265 265 265 265 266 268
248 249 250 251 251 251 251 251 251 252 252 252 252 252 252 252 252 251 251 251 251 251 250 251 251 251 251 252 254 255 255 255 255 256 257 258 259 260 261 261 262 263 264 265 265 264 263 263 262 262 261 260 260 259 259 259 259 259 259 259 259 260 260 260 260 260 260 260 260 258 257 258 258 259 259 259 260 260 261 263 265 266 267 267 268 268 269 270
247 248 248 248 248 248 248 249 249 249 250 251 251 251 252 252 252 251 251 251 251 251 251 251 251 252 252 252 254 255 256 257 257 257 257 258 259 260 261 262 262 264 264 265 265 264 264 263 262 261 260 260 260 260 259 259 259 259 259 260 260 261 261 260 261 261 261 261 260 259 258 258 258 258 259 260 261 261 261 262 264 266 268 269 270 271 270 270
246 247 246 246 246 246 246 247 247 248 248 250 250 251 251 251 252 252 252 252 252 252 252 252 252 252 253 253 254 255 257 258 258 258 258 259 260 260 261 263 263 263 264 264 264 264 264 264 263 262 261 260 260 260 260 260 259 259 259 259 259 260 260 261 261 261 260 260 260 259 258 258 258 259 260 261 262 262 262 262 263 265 267 269 270 270 270 269
246 246 245 244 244 244 245 246 247 248 249 249 250 251 251 252 252 252 253 252 252 252 252 252 252 253 253 253 254 255 257 258 259 260 260 260 261 261 261 262 263 263 263 263 264 264 265 264 263 262 262 261 260 260 260 260 260 259 259 259 259 260 260 260 260 260 260 259 259 259 259 259 259 260 260 261 261 260 261 262 262 263 265 266 267 267 267 268
246 246 245 244 243 244 245 247 247 248 249 250 251 252 252 253 253 253 253 253 253 252 252 252 252 252 252 253 254 255 256 258 259 260 261 261 261 262 262 262 262 262 262 263 263 264 264 263 262 262 261 260 259 259 259 260 260 259 259 259 260 260 260 260 259 259 258 258 259 259 259 259 260 260 260 260 259 259 259 260 261 261 262 263 263 264 265 265
246 246 244 243 242 243 245 246 247 249 250 251 251 252 252 253 253 253 253 253 253 253 252 252 252 252 252 253 254 255 256 257 259 259 260 261 262 262 262 261 261 261 261 262 262 262 262 262 261 261 261 260 260 260 260 260 260 260 260 260 261 261 261 260 260 259 258 258 258 257 258 259 259 259 259 259 260 259 258 258 259 259 260 260 261 262 263 264
247 246 245 243 242 243 244 246 247 249 250 251 252 252 253 253 253 253 253 253 253 253 253 252 252 253 253 254 255 256 256 258 259 259 260 260 261 261 262 261 262 262 262 262 262 262 262 261 260 260 260 260 260 261 261 261 261 260 260 260 261 260 260 261 260 260 259 258 257 256 257 258 258 258 259 259 259 260 260 258 258 258 258 259 260 261 262 263
246 246 246 244 243 244 245 246 248 249 251 252 252 253 254 254 254 254 254 254 254 254 254 254 254 255 255 256 256 257 258 259 260 260 261 261 261 262 262 262 262 263 263 264 264 264 263 262 260 260 259 259 259 259 260 260 260 260 260 260 260 259 259 259 259 259 259 259 258 257 258 259 259 260 261 260 259 260 260 260 259 259 259 259 260 261 263 264
247 246 246 246 245 245 246 247 248 250 251 253 254 254 255 255 255 255 255 255 255 255 255 256 256 257 257 258 259 260 261 261 261 262 262 262 262 262 262 262 262 262 262 262 263 263 262 261 260 259 259 259 258 258 258 258 259 260 260 260 260 260 260 259 259 259 259 260 260 260 260 262 262 263 263 262 260 259 259 259 260 260 260 261 261 262 263 264
247 247 247 247 246 247 247 248 250 251 252 253 254 255 255 256 256 256 256 256 256 256 256 257 258 258 259 260 261 262 262 263 263 263 263 263 263 263 263 263 263 262 262 261 261 260 260 260 259 259 259 259 259 259 259 259 259 260 261 261 261 261 261 261 261 261 261 261 261 262 263 264 264 264 265 264 262 260 259 259 259 260 261 261 262 262 262 263
248 248 247 247 247 247 248 249 250 251 252 253 254 255 255 255 256 256 256 256 256 257 257 258 258 260 260 261 262 263 263 264 264 264 264 264 264 264 264 264 263 263 262 262 261 260 260 259 259 259 259 259 259 259 259 259 260 260 260 260 260 260 260 260 261 261 261 261 261 262 263 263 264 264 265 266 265 263 262 261 260 260 261 262 262 262 263 263
249 249 249 249 249 249 249 249 250 252 253 253 254 255 255 256 256 257 256 256 257 258 258 258 259 260 261 262 263 263 263 264 264 264 265 265 265 265 265 265 264 264 264 263 263 262 261 260 259 259 258 258 258 258 258 259 259 260 260 260 260 261 260 260 260 261 261 261 261 262 263 262 263 263 264 265 266 266 264 263 262 261 261 261 261 262 262 262
251 251 251 251 251 251 251 251 251 252 253 254 254 255 256 256 257 257 258 257 258 258 259 259 260 261 262 263 263 264 264 264 264 265 265 265 265 265 265 265 265 265 264 264 264 263 262 261 260 259 258 258 258 258 258 258 258 258 259 260 260 261 261 261 261 261 262 262 261 261 262 263 263 262 262 263 265 266 266 265 264 263 262 262 261 261 261 260
251 252 252 252 252 253 253 253 253 253 254 255 255 256 256 257 257 258 258 259 259 260 261 261 262 262 263 264 264 264 264 265 265 265 265 266 266 266 266 265 265 265 264 265 264 264 263 262 261 260 259 258 258 258 258 258 258 258 258 259 260 260 260 260 261 261 261 261 261 261 262 262 262 261 262 262 264 265 266 266 266 265 265 264 263 262 262 261
252 252 253 253 253 254 254 254 254 254 255 255 256 256 257 257 258 258 259 259 260 261 261 262 263 263 263 264 264 265 265 265 265 266 266 266 266 266 266 266 265 265 264 264 264 264 264 263 262 261 261 260 259 259 259 258 259 259 259 259 259 260 260 260 260 260 260 261 261 261 261 261 260 261 261 262 262 263 265 266 267 267 266 266 265 264 263 263
254 254 254 254 254 254 254 254 255 255 255 256 256 257 257 258 258 259 259 259 260 260 261 261 262 263 263 263 263 264 265 265 265 266 266 266 266 266 266 265 265 265 264 264 264 264 264 263 262 261 261 261 261 260 260 260 260 260 260 260 260 261 262 261 260 260 261 262 262 262 261 261 261 261 261 261 261 261 263 264 265 266 266 265 265 264 263 263
256 256 255 255 255 255 255 255 255 255 255 255 256 256 257 258 258 259 259 260 260 260 261 261 261 262 262 263 263 263 264 264 265 265 266 266 265 265 264 264 264 264 264 263 263 263 264 264 263 262 261 262 262 261 261 260 261 261 261 261 261 261 262 262 262 261 261 262 263 263 262 262 262 262 261 261 261 262 262 263 264 264 264 264 264 264 263 263
260 258 257 257 256 256 256 256 255 255 255 256 256 256 257 257 258 259 260 260 260 260 261 261 261 261 262 262 262 263 263 263 264 264 264 264 264 263 263 263 263 263 263 263 263 262 263 263 264 263 262 262 262 262 262 262 262 263 263 263 263 262 262 263 263 263 263 263 263 263 263 263 263 262 262 261 261 262 262 262 263 263 264 263 263 263 263 263
263 262 261 260 259 258 257 257 256 256 256 256 256 256 257 257 258 258 259 260 260 260 260 260 260 261 261 261 262 262 262 262 263 263 263 262 262 262 262 262 262 262 262 262 262 262 262 263 264 264 264 263 263 263 263 264 264 264 265 265 265 265 265 265 265 265 265 265 264 264 264 265 264 263 263 263 262 261 261 261 261 262 262 262 262 262 262 262
266 265 264 263 262 260 259 258 258 257 257 257 257 256 256 257 257 258 258 259 260 260 260 260 260 260 260 261 261 261 262 262 262 262 261 261 261 261 261 261 262 262 261 261 261 261 262 262 263 264 264 264 264 264 264 264 264 264 264 265 265 266 266 266 267 266 266 265 265 264 264 265 264 265 265 265 263 261 261 261 261 261 262 262 262 261 261 261
268 267 267 266 265 264 262 261 260 259 258 258 258 257 257 257 258 258 258 258 259 259 259 260 260 260 260 260 260 261 261 261 261 262 261 261 260 260 260 260 260 261 261 261 261 261 261 261 261 262 263 264 265 265 265 265 266 266 265 265 265 265 265 266 266 266 266 266 266 265 263 263 263 264 264 264 264 263 262 261 261 261 261 261 262 262 261 261
269 269 268 267 267 266 265 264 263 261 260 259 258 258 258 258 258 258 258 258 258 259 259 259 260 260 260 260 260 260 260 261 261 261 261 261 261 261 260 260 260 260 260 260 260 261 261 261 261 262 263 264 265 266 267 267 267 267 267 267 267 266 266 266 265 264 264 265 265 264 262 261 263 263 262 263 264 264 263 262 261 260 260 260 261 261 261 261
268 268 268 268 268 267 267 266 266 265 263 262 260 259 258 257 257 258 258 259 259 259 259 260 260 260 260 260 260 260 260 261 261 261 261 261 261 261 260 260 260 260 259 259 260 260 260 261 261 262 263 265 266 266 267 267 267 268 268 269 269 268 268 268 268 266 265 264 264 263 261 261 261 262 263 264 265 265 264 263 263 262 262 261 261 261 261 262
268 267 267 268 268 268 268 267 266 266 266 265 264 263 261 259 258 258 258 258 259 259 260 260 260 261 261 261 261 261 261 261 261 261 261 261 261 261 261 260 260 260 260 260 259 259 260 260 261 262 263 264 265 266 266 266 267 267 268 268 269 269 269 270 270 270 269 269 268 267 265 263 262 262 263 263 263 264 265 265 265 264 264 264 263 263 263 263
268 267 266 266 266 266 267 267 266 266 266 266 266 265 264 263 261 260 259 259 259 259 260 260 261 261 261 261 261 261 262 262 261 261 261 261 261 261 261 260 260 260 260 260 259 260 260 260 261 262 263 263 264 264 265 266 266 266 267 267 267 267 268 268 268 269 270 270 270 270 270 268 267 266 264 263 263 263 264 265 265 264 264 264 265 265 265 265
267 268 267 267 266 265 264 265 266 267 267 266 266 266 265 264 263 263 262 261 261 260 260 260 260 261 261 261 262 261 262 262 262 261 261 261 261 261 261 260 260 260 260 260 259 260 260 261 261 262 263 263 263 263 264 265 265 265 266 266 266 266 266 266 267 267 268 268 268 269 269 270 270 269 268 267 266 266 266 265 265 264 264 263 263 263 264 265
266 266 266 267 267 266 265 264 264 264 265 266 267 266 266 265 264 264 264 263 262 262 261 261 260 260 261 261 261 262 262 262 262 262 261 260 261 261 261 261 260 260 260 260 260 260 260 260 261 262 262 262 262 263 263 263 264 264 264 264 264 264 265 266 266 266 266 266 266 266 266 268 269 269 269 269 268 267 267 267 266 266 265 263 262 262 261 262
265 264 264 265 266 266 266 265 265 264 264 264 264 265 265 266 265 265 265 264 264 263 263 262 261 261 261 261 261 261 262 262 262 262 262 261 261 261 260 261 261 261 261 261 261 261 261 260 261 261 261 261 262 262 262 262 263 263 264 264 264 264 265 265 265 265 265 265 265 265 265 266 268 268 268 268 267 266 265 265 266 266 266 266 264 263 262 261
264 264 264 264 264 264 264 265 265 265 265 264 264 263 264 264 264 264 264 265 265 264 264 263 263 263 262 262 262 262 262 262 262 262 263 263 262 262 262 261 262 262 262 262 262 262 262 262 261 261 261 261 261 262 262 262 262 263 264 265 265 266 265 264 263 264 265 266 266 267 266 265 266 267 267 267 267 266 265 264 264 264 264 265 265 264 264 263
264 264 263 263 263 263 263 263 264 264 264 264 265 264 264 264 264 264 263 263 263 264 264 264 264 264 264 263 263 264 263 263 263 263 264 264 264 264 264 264 263 263 263 263 263 263 263 263 262 262 262 262 262 262 262 261 262 262 263 264 265 265 264 264 264 265 267 267 267 266 266 266 266 267 267 267 267 267 266 265 264 263 263 263 263 264 264 264
263 263 263 263 263 262 262 262 262 263 263 264 264 264 264 264 264 264 263 263 262 262 262 263 263 263 264 264 265 265 264 264 264 265 265 265 265 265 265 265 264 264 264 264 264 264 264 264 263 263 263 263 263 263 263 262 262 262 263 264 264 264 265 266 268 268 268 268 268 268 268 268 267 268 268 269 269 269 269 267 266 265 264 263 263 263 264 264
261 261 262 262 262 262 262 261 261 261 261 262 262 263 263 264 264 264 264 264 263 262 262 262 262 262 263 263 264 265 265 265 265 265 265 266 266 265 265 265 265 264 264 264 264 264 265 265 264 264 264 263 263 264 264 264 264 264 264 265 265 266 267 268 269 269 270 270 270 271 270 269 269 270 270 270 270 270 270 269 268 267 265 264 263 263 263 264